sat.trackr.live / text

‹ back to catalog

STARLINK-11256 [DTC]

NORAD 60904 · 2024-154B

PAYLOAD ACTIVE UNKNOWN

§ Identity

Operator
Country
US
Launch date
2024-08-31
Launch site
AFETR
Launch vehicle
Mass (kg)
RCS (m²)

Purposes: comms

External: N2YO · Heavens-Above · Gunter

§ Orbital elements

Epoch: 2026-05-25T02:59:27.181824Z

Period
91.74 min
Inclination
53.1587°
Eccentricity
0.0000809
Mean motion
15.69703806 rev/d
Perigee alt
359.2 km
Apogee alt
360.3 km
Semi-major
6,737.9 km
B*
1.4056e-5
RAAN
114.1550°
Arg perigee
93.2872°
Mean anomaly
266.8239°
Rev number
10,052

§ Raw data

STARLINK-11256 [DTC]1 60904U 24154B   26145.12462016  .00001115  00000+0  14056-4 0  99922 60904  53.1587 114.1550 0000809  93.2872 266.8239 15.69703806100524

JSON: /api/v1/satellites/60904 · /tle

For live sub-satellite position, see the globe view (requires WebGL).

§ Visibility from observer

Set your observer location to see the next 7 days of passes ≥ 10°. The values pass through the URL so the page stays shareable.

No JS? Fill the form by hand. The geolocation button needs JavaScript.